Location: Weatherford
(35.5260°N, 98.7070°W)
Time: 13:53:19
(UTC-05:00)

Amateur Radio Satellites - All Passes

Search period start: 28 August 2016 13:23
Search period end: 29 August 2016 13:23
Location: Weatherford, 35.5260°N, 98.7070°W

Satellite Date Start Highest point End Downlink Frequencies (MHz)
Time Altitude Azimuth
JUGNU 28 Aug 13:26:41 13:30:25 17° 181° (S) 13:34:07 437.505
DANDE 28 Aug 13:40:08 13:43:55 17° 270° (W) 13:48:12 436.750
DUCHIFAT 1 28 Aug 13:42:15 13:44:26 14° 267° (W) 13:46:38 145.980
PCSat 28 Aug 13:45:26 13:49:40 23° 307° (NW) 13:53:56 145.827
AUBIESAT-1 28 Aug 13:50:16 13:53:16 21° 297° (WNW) 13:56:05 437.475
JAS-2 28 Aug 13:55:48 14:00:16 29° 264° (W) 14:04:57 435.910
M-CUBED/EXP-1 PRIME 28 Aug 13:57:17 13:59:35 15° 299° (WNW) 14:01:46 437.505
VELOX 1 28 Aug 13:59:02 14:03:15 42° 287° (WNW) 14:07:26 145.980
CUBEBUG 1 28 Aug 13:59:12 14:03:11 33° 289° (WNW) 14:07:07 437.445
50 SAT 28 Aug 14:00:23 14:03:34 29° 287° (WNW) 14:06:46 437.505
RS-15 28 Aug 14:01:08 14:09:02 20° 261° (W) 14:16:51 29.354- 29.394
SPROUT 28 Aug 14:12:43 14:16:54 56° 285° (WNW) 14:21:04 437.525
DX 1 28 Aug 14:13:34 14:17:43 43° 287° (WNW) 14:21:50 434.975-435.025
TISAT 1 28 Aug 14:28:52 14:32:50 39° 99° (E) 14:36:44 437.305
Gurwin Techsat 1B 28 Aug 14:38:22 14:43:35 63° 74° (ENE) 14:48:51 435.225
ITAMSAT 1 28 Aug 14:39:22 14:42:50 18° 65° (ENE) 14:46:19 435.822/435.867
O/OREOS (USA 219) 28 Aug 14:41:19 14:45:48 80° 291° (WNW) 14:50:20 437.305
GONETS M04 28 Aug 14:43:43 14:50:12 23° 291° (WNW) 14:56:46
AO-85 28 Aug 14:48:12 14:52:03 34° 54° (NE) 14:55:41 145.980
AISAT 28 Aug 14:50:15 14:51:56 12° 295° (WNW) 14:53:38 437.250
UKube-1 28 Aug 14:53:11 14:56:24 21° 292° (WNW) 14:59:36 .
AO-7 28 Aug 14:56:19 15:02:41 25° 58° (ENE) 15:09:02 29.400- 29.500
Oscar 19 28 Aug 15:01:13 15:05:51 34° 262° (W) 15:10:32 437.125/150
SRMSAT 28 Aug 15:05:14 15:08:53 17° 177° (S) 15:12:31 437.500
Cosmos 2499 28 Aug 15:15:44 15:19:46 14° 292° (WNW) 15:23:43 435.465 / 435.565
JUGNU 28 Aug 15:16:04 15:18:39 13° 191° (SSW) 15:21:13 437.505
ITUPSAT 1 28 Aug 15:29:11 15:33:28 32° 98° (E) 15:37:44 437.325
ISS 28 Aug 15:29:38 15:32:22 24° 33° (NNE) 15:35:07 145.825
SWISSCUBE 28 Aug 16:01:23 16:06:10 85° 103° (ESE) 16:10:56 437.505
TISAT 1 28 Aug 16:05:47 16:08:06 15° 293° (WNW) 16:10:25 437.305
ITAMSAT 1 28 Aug 16:16:54 16:21:54 48° 260° (W) 16:26:54 435.822/435.867
BEESAT 28 Aug 16:18:27 16:23:12 70° 285° (WNW) 16:27:56 436.000
Gurwin Techsat 1B 28 Aug 16:21:23 16:23:54 13° 268° (W) 16:26:26 435.225
MOZHAYETS 4 28 Aug 16:24:45 16:27:52 18° 94° (E) 16:30:58
AO-85 28 Aug 16:29:37 16:32:06 16° 252° (WSW) 16:34:30 145.980
AO-7 28 Aug 16:46:23 16:54:41 69° 255° (WSW) 17:03:03 29.400- 29.500
YUBILEINY 28 Aug 16:48:29 16:53:46 17° 66° (ENE) 16:59:00 435.215
SRMSAT 28 Aug 16:54:01 16:57:17 15° 187° (S) 17:00:34 437.500
ISS 28 Aug 17:05:56 17:08:50 29° 228° (SW) 17:11:43 145.825
ITUPSAT 1 28 Aug 17:07:24 17:11:05 23° 292° (WNW) 17:14:46 437.325
BRITE-PL 28 Aug 17:14:44 17:16:44 12° 62° (ENE) 17:18:48 437.365/2234.400
NOAA 15 28 Aug 17:26:49 17:27:58 11° 61° (ENE) 17:29:08 137.62
CUBESAT XI-V 28 Aug 17:47:24 17:50:31 17° 94° (E) 17:53:37 437.345
KKS-1 28 Aug 17:47:45 17:52:12 68° 284° (WNW) 17:56:35 437.445
LilacSat-2 28 Aug 17:58:30 17:59:16 10° 67° (ENE) 18:00:00 437.200
MOZHAYETS 4 28 Aug 18:00:55 18:05:06 36° 288° (WNW) 18:09:18
HORYU 2 28 Aug 18:04:47 18:09:13 71° 258° (WSW) 18:13:41 437.375
NOAA 18 28 Aug 18:13:39 18:17:59 24° 66° (ENE) 18:22:19 137.9125
Cosmos 2504 28 Aug 18:20:04 18:25:08 20° 70° (ENE) 18:30:11 435.465 / 435.565
Cosmos 2491 28 Aug 18:20:46 18:28:41 41° 87° (E) 18:36:38 435.465 / 435.565
STARS 28 Aug 18:20:57 18:25:17 60° 285° (WNW) 18:29:35 437.465
GOMX 1 28 Aug 18:21:07 18:25:23 28° 68° (ENE) 18:29:50 467.674
DOVE 4 28 Aug 18:24:42 18:27:14 14° 64° (ENE) 18:29:48 437.250
YUBILEINY 28 Aug 18:42:52 18:51:40 86° 265° (W) 19:00:22 435.215
BRITE-PL 28 Aug 18:49:40 18:54:25 69° 259° (W) 18:59:37 437.365/2234.400
Cubesat XI-IV 28 Aug 18:52:22 18:57:37 59° 73° (ENE) 19:02:52 437.490
NOAA 15 28 Aug 19:01:43 19:06:57 85° 257° (WSW) 19:12:15 137.62
CUTE-I 28 Aug 19:03:48 19:09:08 78° 75° (ENE) 19:14:28 437.470
BEESAT 2 28 Aug 19:21:34 19:25:07 29° 55° (NE) 19:28:38 435.950
CUBESAT XI-V 28 Aug 19:23:37 19:28:00 40° 288° (WNW) 19:32:23 437.345
LilacSat-2 28 Aug 19:29:25 19:33:06 46° 261° (W) 19:36:49 437.200
STRAND 1 28 Aug 19:34:07 19:35:29 11° 91° (E) 19:36:52 437.568
BEESAT 3 28 Aug 19:37:14 19:41:13 88° 243° (WSW) 19:45:10 437.485
HO-68 28 Aug 19:40:28 19:46:29 30° 64° (ENE) 19:52:31 435.675
NOAA 18 28 Aug 19:53:10 19:58:21 40° 261° (W) 20:03:33 137.9125
GOMX 1 28 Aug 19:58:50 20:03:16 31° 265° (W) 20:07:59 467.674
DOVE 4 28 Aug 19:59:08 20:04:14 69° 259° (W) 20:09:32 437.250
Cosmos 2504 28 Aug 20:11:57 20:18:59 60° 268° (W) 20:26:01 435.465 / 435.565
Cosmos 2491 28 Aug 20:17:30 20:25:26 38° 285° (WNW) 20:33:27 435.465 / 435.565
CINEMA 3 28 Aug 20:31:57 20:36:57 75° 76° (ENE) 20:41:56 145.822/145.860
SEEDS 28 Aug 20:34:58 20:38:48 37° 73° (ENE) 20:42:40 437.485
Cubesat XI-IV 28 Aug 20:35:10 20:38:01 14° 268° (W) 20:40:52 437.490
UWE-3 28 Aug 20:40:06 20:42:49 16° 68° (ENE) 20:45:31 435.000/436.395/437.385
AIST 1 28 Aug 20:40:09 20:43:53 27° 77° (ENE) 20:47:35
YUBILEINY 28 Aug 20:43:07 20:47:02 14° 283° (WNW) 20:50:58 435.215
CUBEBUG 2 28 Aug 20:43:33 20:47:27 27° 71° (ENE) 20:51:16 437.445
CUTE-I 28 Aug 20:48:41 20:49:40 10° 269° (W) 20:50:39 437.470
PCSat 28 Aug 20:52:22 20:56:26 21° 52° (NE) 21:00:29 145.827
ZACube-1 28 Aug 20:52:47 20:54:52 13° 67° (ENE) 20:56:55 437.345
CANX-2 28 Aug 20:58:31 21:02:40 62° 259° (W) 21:06:50 2200.000
BEESAT 2 28 Aug 20:59:50 21:02:44 19° 249° (WSW) 21:05:37 435.950
AAUSAT CUBESAT 2 28 Aug 21:02:46 21:06:37 42° 74° (ENE) 21:10:30 437.432
CUTE 1.7 + AOD 2 28 Aug 21:04:24 21:08:31 61° 259° (W) 21:12:42 437.475
STRAND 1 28 Aug 21:10:00 21:15:05 70° 285° (WNW) 21:20:09 437.568
COMPASS 1 28 Aug 21:11:43 21:15:49 73° 77° (ENE) 21:19:56 437.405
HO-68 28 Aug 21:27:00 21:33:52 48° 260° (W) 21:40:46 435.675
AIST 2 28 Aug 21:42:26 21:46:22 38° 56° (NE) 21:50:16 435.215
PRISM 28 Aug 21:46:47 21:50:26 29° 97° (E) 21:54:05 437.425
Oscar 11 28 Aug 21:55:06 21:59:23 69° 76° (ENE) 22:03:39 145.826/435.025
FUNcube-1 28 Aug 22:04:02 22:08:30 82° 77° (ENE) 22:12:53 145.935
SEEDS 28 Aug 22:12:25 22:14:38 14° 267° (W) 22:16:52 437.485
CINEMA 3 28 Aug 22:14:07 22:14:30 10° 270° (W) 22:14:52 145.822/145.860
UWE-3 28 Aug 22:14:33 22:18:55 43° 261° (W) 22:23:13 435.000/436.395/437.385
AIST 1 28 Aug 22:18:01 22:21:17 21° 272° (W) 22:24:32
CUBEBUG 2 28 Aug 22:20:02 22:23:56 26° 264° (W) 22:27:48 437.445
ZACube-1 28 Aug 22:26:22 22:30:42 50° 260° (W) 22:34:59 437.345
DELFI C3 28 Aug 22:31:20 22:35:14 73° 76° (ENE) 22:39:10 145.870
PCSat 28 Aug 22:34:52 22:40:06 51° 248° (WSW) 22:45:18 145.827
AAUSAT CUBESAT 2 28 Aug 22:40:35 22:42:16 12° 268° (W) 22:43:59 437.432
AUBIESAT-1 28 Aug 22:58:00 23:01:40 24° 64° (ENE) 23:05:20 437.475
UNISAT 6 28 Aug 22:58:15 23:01:10 18° 94° (E) 23:04:03 437.425
GONETS M04 28 Aug 22:58:47 23:06:15 29° 72° (ENE) 23:13:38
HUMSAT D 28 Aug 23:01:56 23:06:06 79° 77° (ENE) 23:10:14 437.325/437.525
M-CUBED/EXP-1 PRIME 28 Aug 23:04:09 23:08:20 33° 66° (ENE) 23:12:33 437.505
Cosmos 2499 28 Aug 23:13:24 23:18:47 23° 72° (ENE) 23:24:13 435.465 / 435.565
O/OREOS (USA 219) 28 Aug 23:17:41 23:18:58 11° 56° (NE) 23:20:13 437.305
CUBEBUG 1 28 Aug 23:18:39 23:20:00 11° 65° (ENE) 23:21:21 437.445
SO-50 28 Aug 23:20:28 23:24:39 29° 112° (ESE) 23:28:49 436.795
AIST 2 28 Aug 23:21:56 23:24:31 16° 251° (WSW) 23:27:06 435.215
PRISM 28 Aug 23:22:31 23:25:31 19° 292° (WNW) 23:28:31 437.425
ANTELSAT 28 Aug 23:34:10 23:38:18 47° 99° (E) 23:42:24 437.575/2403.000
CUSAT 1 28 Aug 23:55:14 23:57:52 38° 93° (E) 00:01:03 437.405
QB50P2 28 Aug 23:58:27 23:59:45 11° 92° (E) 00:01:02 145.880/145.840
RS-15 28 Aug 23:58:44 00:05:01 17° 97° (E) 00:11:24 29.354- 29.394
POLYITAN 1 29 Aug 00:00:55 00:02:15 11° 92° (E) 00:03:36 437.675
ESTCUBE 1 29 Aug 00:02:42 00:07:04 58° 75° (ENE) 00:11:30 437.505/2401.250
TIGRISAT 29 Aug 00:04:40 00:08:55 76° 285° (WNW) 00:13:08 435.000
AISAT 29 Aug 00:05:59 00:10:00 34° 71° (ENE) 00:14:03 437.250
NANOSAT C BR1 29 Aug 00:07:45 00:09:42 13° 93° (E) 00:11:39 145.865
UKube-1 29 Aug 00:09:07 00:12:02 18° 67° (ENE) 00:14:57 .
AUBIESAT-1 29 Aug 00:31:45 00:35:52 32° 258° (WSW) 00:40:03 437.475
50 SAT 29 Aug 00:33:57 00:37:30 69° 76° (ENE) 00:41:04 437.505
UNISAT 6 29 Aug 00:34:09 00:37:55 31° 289° (WNW) 00:41:40 437.425
M-CUBED/EXP-1 PRIME 29 Aug 00:39:07 00:42:48 23° 260° (W) 00:46:32 437.505
BUGSAT 1 29 Aug 00:43:20 00:45:01 12° 92° (E) 00:46:41 437.445
QB50P1 29 Aug 00:50:46 00:54:51 47° 99° (E) 00:58:54 145.935-145.965
CUBEBUG 1 29 Aug 00:51:24 00:55:43 59° 259° (W) 01:00:06 437.445
VELOX 1 29 Aug 00:52:44 00:57:08 72° 258° (WSW) 01:01:36 145.980
O/OREOS (USA 219) 29 Aug 00:54:15 00:58:51 70° 252° (WSW) 01:03:25 437.305
GONETS M04 29 Aug 00:54:51 01:03:23 55° 270° (W) 01:11:53
SO-50 29 Aug 01:00:48 01:05:03 30° 307° (NW) 01:09:18 436.795
POPSAT HIP 1 29 Aug 01:00:51 01:05:02 63° 101° (E) 01:09:10 437.405
SPROUT 29 Aug 01:02:42 01:06:58 71° 77° (ENE) 01:11:17 437.525
DANDE 29 Aug 01:04:49 01:07:22 78° 279° (W) 01:10:06 436.750
JAS-2 29 Aug 01:05:06 01:11:43 41° 99° (E) 01:18:52 435.910
Cosmos 2499 29 Aug 01:05:24 01:12:10 52° 269° (W) 01:19:06 435.465 / 435.565
DX 1 29 Aug 01:05:29 01:09:50 76° 257° (WSW) 01:14:14 434.975-435.025
ANTELSAT 29 Aug 01:12:46 01:14:34 12° 294° (WNW) 01:16:21 437.575/2403.000
TISAT 1 29 Aug 01:18:04 01:21:15 21° 69° (ENE) 01:24:26 437.305
DUCHIFAT 1 29 Aug 01:26:57 01:31:07 69° 285° (WNW) 01:35:15 145.980
QB50P2 29 Aug 01:31:43 01:35:47 48° 286° (WNW) 01:39:49 145.880/145.840
POLYITAN 1 29 Aug 01:34:15 01:38:17 47° 286° (WNW) 01:42:18 437.675
Oscar 19 29 Aug 01:39:50 01:40:34 10° 91° (E) 01:41:17 437.125/150
NANOSAT C BR1 29 Aug 01:41:38 01:45:36 41° 287° (WNW) 01:49:32 145.865
ESTCUBE 1 29 Aug 01:43:17 01:44:12 11° 269° (W) 01:45:07 437.505/2401.250
AISAT 29 Aug 01:43:27 01:46:31 18° 266° (W) 01:49:37 437.250
PHONESAT 2.4 29 Aug 01:43:28 01:46:23 49° 153° (SSE) 01:49:18 2401.200-2431.200
UKube-1 29 Aug 01:43:52 01:47:47 34° 262° (W) 01:51:44 .
RS-15 29 Aug 02:03:58 02:15:23 82° 116° (ESE) 02:27:29 29.354- 29.394
BUGSAT 1 29 Aug 02:16:41 02:20:34 42° 287° (WNW) 02:24:24 437.445
QB50P1 29 Aug 02:28:25 02:30:10 12° 294° (WNW) 02:31:55 145.935-145.965
ITUPSAT 1 29 Aug 02:33:14 02:37:13 27° 69° (ENE) 02:41:14 437.325
JAS-2 29 Aug 02:50:21 02:56:33 36° 291° (WNW) 03:03:17 435.910
TISAT 1 29 Aug 02:53:03 02:56:42 28° 263° (W) 03:00:22 437.305
Gurwin Techsat 1B 29 Aug 02:57:59 03:02:42 32° 97° (E) 03:07:23 435.225
SWISSCUBE 29 Aug 03:04:40 03:09:22 69° 76° (ENE) 03:14:05 437.505
Oscar 19 29 Aug 03:15:09 03:20:21 76° 285° (WNW) 03:25:32 437.125/150
PHONESAT 2.4 29 Aug 03:19:57 03:22:48 38° 348° (NNW) 03:25:38 2401.200-2431.200
BEESAT 29 Aug 03:21:34 03:26:20 86° 257° (WSW) 03:31:06 436.000
MOZHAYETS 4 29 Aug 03:25:06 03:27:03 13° 65° (ENE) 03:29:01
ITUPSAT 1 29 Aug 04:10:59 04:14:57 26° 264° (W) 04:18:56 437.325
RS-15 29 Aug 04:19:22 04:29:19 31° 321° (NW) 04:39:44 29.354- 29.394
ITAMSAT 1 29 Aug 04:32:28 04:37:40 77° 103° (ESE) 04:42:51 435.822/435.867
Cosmos 2491 29 Aug 04:36:07 04:41:21 17° 66° (ENE) 04:46:32 435.465 / 435.565
Gurwin Techsat 1B 29 Aug 04:38:02 04:42:29 28° 292° (WNW) 04:46:56 435.225
KKS-1 29 Aug 04:42:22 04:46:50 74° 74° (ENE) 04:51:19 437.445
CUBESAT XI-V 29 Aug 04:49:13 04:51:06 12° 65° (ENE) 04:53:00 437.345
AO-7 29 Aug 04:51:31 04:59:32 50° 102° (ESE) 05:07:27 29.400- 29.500
PHONESAT 2.4 29 Aug 04:56:48 04:59:31 30° 5° (N) 05:02:14 2401.200-2431.200
AO-85 29 Aug 04:58:40 05:03:15 29° 112° (ESE) 05:07:42 145.980
MOZHAYETS 4 29 Aug 04:59:15 05:03:42 55° 260° (W) 05:08:12
STARS 29 Aug 05:14:04 05:18:30 80° 76° (ENE) 05:22:57 437.465
YUBILEINY 29 Aug 05:46:05 05:52:18 22° 81° (E) 05:58:30 435.215
HORYU 2 29 Aug 05:59:07 06:02:51 26° 97° (E) 06:06:33 437.375
ITAMSAT 1 29 Aug 06:14:42 06:16:26 12° 298° (WNW) 06:18:10 435.822/435.867
CUBESAT XI-V 29 Aug 06:23:25 06:27:56 58° 260° (W) 06:32:30 437.345
GOMX 1 29 Aug 06:29:10 06:29:55 10° 88° (E) 06:30:40 467.674
Cosmos 2491 29 Aug 06:30:26 06:39:19 89° 265° (W) 06:48:10 435.465 / 435.565
PHONESAT 2.4 29 Aug 06:33:06 06:36:05 81° 19° (NNE) 06:39:04 2401.200-2431.200
AO-85 29 Aug 06:38:51 06:43:39 34° 305° (NW) 06:48:14 145.980
NOAA 18 29 Aug 06:40:28 06:42:13 11° 91° (E) 06:43:59 137.9125
RS-15 29 Aug 06:41:49 06:47:47 14° 355° (N) 06:53:49 29.354- 29.394
AO-7 29 Aug 06:44:47 06:51:57 34° 299° (WNW) 06:59:07 29.400- 29.500
STRAND 1 29 Aug 06:47:00 06:49:17 13° 63° (ENE) 06:51:35 437.568
Cosmos 2504 29 Aug 06:55:04 07:00:52 21° 83° (E) 07:06:25 435.465 / 435.565
BRITE-PL 29 Aug 06:57:15 07:02:50 54° 99° (E) 07:08:11 437.365/2234.400
LilacSat-2 29 Aug 07:06:12 07:09:07 21° 96° (E) 07:12:01 437.200
Cubesat XI-IV 29 Aug 07:13:04 07:17:42 30° 97° (E) 07:22:18 437.490
NOAA 15 29 Aug 07:19:59 07:25:07 46° 100° (E) 07:30:11 137.62
CUTE-I 29 Aug 07:24:09 07:29:06 39° 99° (E) 07:34:02 437.470
HORYU 2 29 Aug 07:35:45 07:39:15 23° 291° (WNW) 07:42:44 437.375
YUBILEINY 29 Aug 07:39:23 07:48:10 69° 278° (W) 07:57:00 435.215
SO-50 29 Aug 07:55:52 07:58:05 13° 45° (NE) 08:00:15 436.795
DOVE 4 29 Aug 08:01:49 08:06:33 43° 98° (E) 08:10:58 437.250
GOMX 1 29 Aug 08:03:13 08:08:36 78° 283° (WNW) 08:13:39 467.674
ISS 29 Aug 08:07:04 08:10:02 32° 132° (SE) 08:13:00 145.825
PHONESAT 2.4 29 Aug 08:10:14 08:12:09 16° 215° (SW) 08:14:04 2401.200-2431.200
NOAA 18 29 Aug 08:17:54 08:23:22 75° 286° (WNW) 08:28:48 137.9125
STRAND 1 29 Aug 08:22:47 08:27:51 67° 258° (WSW) 08:32:56 437.568
Cosmos 2491 29 Aug 08:30:27 08:34:48 15° 282° (WNW) 08:39:09 435.465 / 435.565
CINEMA 3 29 Aug 08:31:08 08:34:27 21° 94° (E) 08:37:39 145.822/145.860
PRISM 29 Aug 08:34:33 08:36:48 15° 67° (ENE) 08:39:04 437.425
BRITE-PL 29 Aug 08:36:50 08:40:46 19° 295° (WNW) 08:44:37 437.365/2234.400
LilacSat-2 29 Aug 08:40:28 08:43:17 20° 289° (WNW) 08:46:06 437.200
Cosmos 2504 29 Aug 08:45:04 08:53:32 68° 278° (W) 09:01:27 435.465 / 435.565
CANX-2 29 Aug 08:46:46 08:50:24 27° 96° (E) 08:54:00 2200.000
CUTE 1.7 + AOD 2 29 Aug 08:52:31 08:56:09 27° 96° (E) 08:59:46 437.475
Cubesat XI-IV 29 Aug 08:53:06 08:57:39 29° 291° (WNW) 09:02:11 437.490
RS-15 29 Aug 08:57:41 09:07:08 24° 32° (NNE) 09:16:30 29.354- 29.394
HO-68 29 Aug 08:57:51 09:04:31 40° 99° (E) 09:11:08 435.675
COMPASS 1 29 Aug 08:58:52 09:01:12 14° 93° (E) 09:03:31 437.405
NOAA 15 29 Aug 09:00:44 09:04:29 20° 295° (WNW) 09:08:15 137.62
CUTE-I 29 Aug 09:04:47 09:08:52 23° 293° (WNW) 09:12:57 437.470
AIST 1 29 Aug 09:06:57 09:09:56 18° 87° (E) 09:12:55
BEESAT 3 29 Aug 09:25:06 09:28:33 30° 113° (ESE) 09:32:01 437.485
SO-50 29 Aug 09:34:30 09:39:03 71° 244° (WSW) 09:43:28 436.795
DOVE 4 29 Aug 09:40:31 09:43:47 18° 294° (WNW) 09:46:57 437.250
ISS 29 Aug 09:43:52 09:46:32 22° 328° (NNW) 09:49:12 145.825
YUBILEINY 29 Aug 09:44:29 09:46:40 11° 299° (WNW) 09:48:51 435.215
Oscar 11 29 Aug 09:46:33 09:49:10 16° 93° (E) 09:51:46 145.826/435.025
UNISAT 6 29 Aug 09:55:16 09:57:18 13° 66° (ENE) 09:59:21 437.425
FUNcube-1 29 Aug 09:56:08 09:58:58 18° 94° (E) 10:01:47 145.935
SEEDS 29 Aug 09:56:51 10:01:03 70° 284° (WNW) 10:05:15 437.485
UWE-3 29 Aug 10:07:11 10:11:11 44° 99° (E) 10:15:07 435.000/436.395/437.385
CINEMA 3 29 Aug 10:07:46 10:11:35 28° 290° (WNW) 10:15:14 145.822/145.860
PRISM 29 Aug 10:07:56 10:11:44 38° 261° (W) 10:15:35 437.425
CUBEBUG 2 29 Aug 10:13:11 10:17:24 85° 99° (E) 10:21:32 437.445
DELFI C3 29 Aug 10:13:53 10:15:18 12° 92° (E) 10:16:41 145.870
ZACube-1 29 Aug 10:17:49 10:21:39 35° 98° (E) 10:25:26 437.345
CANX-2 29 Aug 10:22:52 10:26:04 21° 290° (WNW) 10:29:16 2200.000
AAUSAT CUBESAT 2 29 Aug 10:22:54 10:27:02 65° 284° (WNW) 10:31:10 437.432
CUSAT 1 29 Aug 10:27:38 10:34:00 40° 77° (ENE) 10:41:16 437.405
CUTE 1.7 + AOD 2 29 Aug 10:28:37 10:31:49 21° 290° (WNW) 10:35:00 437.475
ANTELSAT 29 Aug 10:29:55 10:33:56 31° 71° (ENE) 10:37:54 437.575/2403.000
COMPASS 1 29 Aug 10:32:59 10:36:52 37° 287° (WNW) 10:40:44 437.405
AIST 1 29 Aug 10:43:27 10:47:15 30° 282° (WNW) 10:51:07
HO-68 29 Aug 10:45:45 10:52:03 35° 295° (WNW) 10:58:20 435.675
BEESAT 2 29 Aug 10:47:42 10:51:33 53° 302° (WNW) 10:55:27 435.950
HUMSAT D 29 Aug 10:49:35 10:51:57 15° 94° (E) 10:54:19 437.325/437.525
TIGRISAT 29 Aug 10:59:42 11:04:16 64° 76° (ENE) 11:08:45 435.000
BEESAT 3 29 Aug 11:03:24 11:06:15 19° 309° (NW) 11:09:07 437.485
RS-15 29 Aug 11:09:48 11:22:14 74° 59° (ENE) 11:34:20 29.354- 29.394
Oscar 11 29 Aug 11:21:25 11:25:23 37° 287° (WNW) 11:29:21 145.826/435.025
JUGNU 29 Aug 11:23:43 11:27:01 15° 172° (S) 11:30:17 437.505
UNISAT 6 29 Aug 11:29:02 11:33:33 55° 260° (W) 11:38:00 437.425
PCSat 29 Aug 11:30:37 11:35:22 32° 108° (ESE) 11:40:07 145.827
FUNcube-1 29 Aug 11:31:39 11:35:14 29° 288° (WNW) 11:38:48 145.935
AIST 2 29 Aug 11:38:23 11:40:56 16° 109° (ESE) 11:43:30 435.215
QB50P1 29 Aug 11:40:33 11:44:02 25° 70° (ENE) 11:47:30 145.935-145.965
DANDE 29 Aug 11:40:59 11:46:48 61° 81° (E) 11:54:11 436.750
UWE-3 29 Aug 11:45:23 11:47:12 13° 294° (WNW) 11:49:02 435.000/436.395/437.385
DELFI C3 29 Aug 11:46:30 11:50:18 42° 286° (WNW) 11:54:06 145.870
Cosmos 2499 29 Aug 11:46:54 11:52:45 22° 84° (E) 11:58:19 435.465 / 435.565
POPSAT HIP 1 29 Aug 11:50:24 11:54:10 31° 72° (ENE) 11:57:58 437.405
ZACube-1 29 Aug 11:55:12 11:57:37 15° 292° (WNW) 12:00:01 437.345
GONETS M04 29 Aug 11:56:00 12:03:43 37° 86° (E) 12:11:30
ESTCUBE 1 29 Aug 11:59:26 12:02:09 16° 93° (E) 12:04:52 437.505/2401.250
ANTELSAT 29 Aug 12:07:07 12:10:37 21° 265° (W) 12:14:05 437.575/2403.000
CUSAT 1 29 Aug 12:09:39 12:15:55 37° 268° (W) 12:22:57 437.405
AUBIESAT-1 29 Aug 12:14:23 12:17:20 21° 99° (E) 12:20:06 437.475
DUCHIFAT 1 29 Aug 12:15:24 12:19:34 56° 75° (ENE) 12:23:43 145.980
QB50P2 29 Aug 12:20:43 12:24:59 81° 77° (ENE) 12:29:17 145.880/145.840
M-CUBED/EXP-1 PRIME 29 Aug 12:21:16 12:24:52 32° 101° (ESE) 12:28:12 437.505
POLYITAN 1 29 Aug 12:23:13 12:27:30 82° 77° (ENE) 12:31:47 437.675
HUMSAT D 29 Aug 12:23:57 12:27:39 34° 287° (WNW) 12:31:22 437.325/437.525
NANOSAT C BR1 29 Aug 12:30:03 12:34:18 88° 247° (WSW) 12:38:36 145.865
CUBEBUG 1 29 Aug 12:43:13 12:47:09 31° 97° (E) 12:51:03 437.445
VELOX 1 29 Aug 12:46:15 12:50:02 26° 97° (E) 12:53:46 145.980
SPROUT 29 Aug 12:53:02 12:55:31 15° 93° (E) 12:57:58 437.525
Oscar 19 29 Aug 12:53:11 12:55:20 13° 62° (ENE) 12:57:29 437.125/150
DX 1 29 Aug 12:57:16 13:00:46 23° 96° (E) 13:04:13 434.975-435.025
JAS-2 29 Aug 12:59:50 13:05:00 81° 77° (ENE) 13:10:30 435.910
BUGSAT 1 29 Aug 13:02:34 13:06:48 84° 80° (E) 13:11:05 437.445
SRMSAT 29 Aug 13:05:02 13:07:31 13° 169° (SSE) 13:10:00 437.500
JUGNU 29 Aug 13:11:33 13:15:17 17° 182° (S) 13:18:59 437.505
AIST 2 29 Aug 13:15:17 13:19:05 36° 304° (NW) 13:22:55 435.215
QB50P1 29 Aug 13:16:15 13:19:41 23° 264° (W) 13:23:08 145.935-145.965
